[[{"header":{"parameterUnit":"m.s-1","parameterCategory":1,"la1":30.2991,"la2":30.254,"lo1":-89.0895,"lo2":-89.0444,"dy":0.0017,"dx":0.0017,"nx":28,"ny":28,"refTime":"2023-10-09T03:00:00:Z","depth":0,"parameterNumber":2,"parameterNumberName":"U-component_of_WINDS"},"data":[0,0,0,0,0,0,0,0,0,0,0,0,0,0,0,0,0,0,0,0,0,0,0,0,0,0,0,0,0,0,0,0,0,0,0,0,0,0,0,0,0,0,0,0,0,0,0,0,0,0,0,0,0,0,0,0,0,0,0.8754,0.8755,0,0.8833,0.8834,0.8835,0.886,0.886,0.886,0.8859,0.8935,0.8937,0.894,0,0,0,0,0,0,0,0,0,0,0,0,0,0.8621,0.8623,0.8754,0.8755,0.8756,0.8833,0.8834,0.8835,0.886,0.886,0.8859,0.8859,0.8934,0.8937,0.894,0,0,0,0,0,0,0,0,0,0,0,0,0,0.8687,0.8624,0.8754,0.8778,0.8781,0.8833,0.8834,0.8835,0.886,0.886,0.8859,0.8859,0.8934,0.8937,0.894,0.8972,0,0,0.8951,0.8953,0,0,0,0,0,0,0,0,0.8683,0.8692,0.8774,0.8777,0.878,0.8836,0.8815,0.8881,0.8861,0.883,0.8859,0.8859,0.8902,0.8908,0.8924,0.8976,0.8979,0.8951,0.8954,0.8955,0.8956,0,0,0,0,0,0,0,0.8679,0.8689,0.8785,0.8775,0.8779,0.8783,0.8792,0.8827,0.8868,0.8833,0.8835,0.8844,0.8904,0.8921,0.8926,0.898,0.8951,0.8954,0.8957,0.8958,0.906,0.9061,0,0,0,0,0,0,0.8671,0.8685,0.8783,0.8788,0.873,0.8786,0.8796,0.8819,0.8868,0.8875,0.8844,0.8845,0.8915,0.8922,0.8929,0.8969,0.8955,0.8958,0.896,0.9059,0.906,0.9061,0,0,0,0,0,0,0.8668,0.8679,0.878,0.8737,0.875,0.8789,0.8814,0.8821,0.8837,0.8877,0.8883,0.8854,0.8915,0.8924,0.8961,0.8971,0.896,0.8963,0.9059,0.906,0.906,0.9048,0,0,0,0,0,0,0.8664,0.8678,0.8692,0.8737,0.8752,0.8812,0.8815,0.8822,0.8844,0.8845,0.8888,0.8894,0.8915,0.8956,0.8965,0.8976,0.8966,0.9058,0.9059,0.906,0.9048,0.9049,0.9049,0,0,0,0,0,0.8659,0.8684,0.8692,0.8704,0.877,0.8813,0.8821,0.8846,0.8845,0.8858,0.8883,0.8893,0.8969,0.8959,0.897,0.8982,0.9057,0.9059,0.906,0.9048,0.9048,0.9049,0,0,0,0,0,0,0.8638,0.8691,0.87,0.8742,0.8773,0.8817,0.8835,0.8846,0.8877,0.8877,0.8905,0.8915,0.895,0.897,0.8958,0.9015,0.9013,0.9017,0.9,0.9002,0.9002,0.8996,0.8969,0,0,0,0,0,0.8638,0.867,0.8714,0.8746,0.8761,0.8795,0.8814,0.8831,0.8864,0.8876,0.8904,0.8934,0.8965,0.8984,0.9015,0.9051,0.906,0.9064,0.9065,0.9066,0.9068,0.9087,0.909,0.9065,0.9065,0.9065,0,0,0.8639,0.8672,0.869,0.8742,0.8769,0.8799,0.8806,0.8838,0.886,0.8881,0.8918,0.8939,0.8974,0.9011,0.9028,0.9029,0.9077,0.9067,0.9067,0.907,0.9089,0.9091,0.9093,0.9066,0.9066,0.9066,0,0,0.8656,0.8684,0.8714,0.874,0.878,0.8802,0.8809,0.8852,0.8867,0.8905,0.8921,0.8947,0.8999,0.9024,0.9043,0.9068,0.9078,0.9077,0.908,0.9099,0.9101,0.9102,0.911,0.9113,0.9079,0.9079,0.9079,0,0.8651,0.8699,0.8727,0.8758,0.878,0.8802,0.8831,0.8854,0.8901,0.8915,0.8915,0.8981,0.9006,0.9048,0.9054,0.9069,0.9077,0.9072,0.9098,0.91,0.9102,0.911,0.9113,0.9079,0.9079,0.9079,0.9079,0,0.8691,0.8724,0.8742,0.8789,0.8813,0.8843,0.8873,0.8894,0.8908,0.893,0.8967,0.8998,0.9035,0.9046,0.906,0.909,0.9089,0.9093,0.9092,0.9104,0.9112,0.9115,0.9078,0.9078,0.9078,0.9078,0,0,0.8697,0.8758,0.8764,0.8785,0.883,0.8855,0.8885,0.8923,0.8939,0.8971,0.8995,0.9039,0.9044,0.9065,0.9082,0.9098,0.9114,0.91,0.9102,0.9101,0.9148,0.9144,0.9147,0.9121,0.9122,0.9123,0.9145,0,0.8718,0.8775,0.8801,0.8845,0.8875,0.8895,0.8921,0.895,0.8971,0.8998,0.9021,0.9051,0.9055,0.9068,0.9085,0.9109,0.9124,0.9108,0.9143,0.9144,0.9134,0.9151,0.9147,0.9167,0.9148,0.9149,0.9149,0,0.8752,0.8785,0.8832,0.8873,0.8887,0.891,0.8945,0.8972,0.9005,0.9019,0.9043,0.9058,0.9089,0.9086,0.9128,0.9116,0.9132,0.9146,0.9147,0.9151,0.9147,0.9155,0.9173,0.9176,0.9154,0.9154,0.9153,0,0.875,0.8806,0.8842,0.8859,0.8908,0.8923,0.8944,0.8977,0.8997,0.9028,0.9041,0.9074,0.9092,0.9117,0.914,0.9136,0.9179,0.9179,0.919,0.9189,0.9198,0.9197,0.9219,0.9209,0.9209,0.9209,0.9209,0,0.8771,0.8799,0.8841,0.8863,0.8895,0.8923,0.8953,0.8974,0.9003,0.9029,0.9048,0.907,0.9101,0.9127,0.9145,0.9176,0.9184,0.9195,0.9199,0.9193,0.9191,0.9203,0.9202,0.921,0.9209,0.9209,0.9209,0,0.8774,0.8804,0.8844,0.8887,0.8899,0.892,0.8956,0.8977,0.8999,0.903,0.9039,0.9073,0.9104,0.913,0.9171,0.9184,0.9216,0.9221,0.9205,0.9207,0.9217,0.9215,0.9247,0.9252,0.9239,0.9239,0.9239,0,0.8786,0.8808,0.8854,0.8873,0.8894,0.8924,0.8946,0.8974,0.8995,0.9034,0.9049,0.9083,0.9111,0.916,0.9187,0.9218,0.9224,0.9233,0.9229,0.9222,0.9223,0.9222,0.9223,0.9233,0.9233,0.9233,0.9233,0,0.8803,0.8816,0.8847,0.8883,0.8908,0.8937,0.8966,0.898,0.9013,0.9036,0.9069,0.9091,0.9133,0.9165,0.92,0.9219,0.9231,0.9234,0.9238,0.9232,0.9221,0.9226,0.9205,0.9233,0.9233,0.9233,0.9233,0.9233,0.881,0.8831,0.8866,0.89,0.8925,0.8952,0.8974,0.8998,0.9027,0.9065,0.9079,0.9113,0.9144,0.9191,0.9211,0.9237,0.9238,0.9244,0.9246,0.9247,0.9245,0.9218,0.9243,0.9243,0.9243,0.9243,0.9243,0,0.8827,0.8851,0.8882,0.8923,0.8949,0.896,0.8992,0.9013,0.9043,0.9072,0.9099,0.9137,0.9168,0.9197,0.923,0.9244,0.9251,0.9252,0.9251,0.9255,0.9243,0.9236,0.9246,0.9246,0.9246,0.9246,0.9246,0.9246,0.8839,0.8874,0.8892,0.8939,0.8962,0.8997,0.9014,0.9039,0.9062,0.9104,0.913,0.915,0.9179,0.9213,0.9242,0.9249,0.926,0.926,0.9268,0.9256,0.9256,0.9255,0.9249,0.9262,0.9262,0.9279,0.9279,0.9279]},{"header":{"parameterUnit":"m.s-1","parameterCategory":1,"la1":30.2991,"la2":30.254,"lo1":-89.0895,"lo2":-89.0444,"dy":0.0017,"dx":0.0017,"nx":28,"ny":28,"refTime":"2023-10-09T03:00:00:Z","depth":0,"parameterNumber":3,"parameterNumberName":"V-component_of_WINDS"},"data":[0,0,0,0,0,0,0,0,0,0,0,0,0,0,0,0,0,0,0,0,0,0,0,0,0,0,0,0,0,0,0,0,0,0,0,0,0,0,0,0,0,0,0,0,0,0,0,0,0,0,0,0,0,0,0,0,0,0,2.8735,2.8735,0,2.8709,2.8709,2.8708,2.8662,2.8661,2.866,2.8659,2.8633,2.8633,2.8634,0,0,0,0,0,0,0,0,0,0,0,0,0,2.8744,2.8744,2.8735,2.8734,2.8734,2.8709,2.8709,2.8708,2.8662,2.8661,2.866,2.8659,2.8633,2.8633,2.8634,0,0,0,0,0,0,0,0,0,0,0,0,0,2.8731,2.8744,2.8735,2.8708,2.8705,2.8709,2.8709,2.8708,2.8662,2.8661,2.866,2.8658,2.8633,2.8633,2.8634,2.8662,0,0,2.8634,2.8634,0,0,0,0,0,0,0,0,2.8732,2.8731,2.8712,2.871,2.8707,2.8687,2.8702,2.8693,2.8663,2.8679,2.8659,2.8658,2.8652,2.8651,2.8649,2.866,2.8659,2.8634,2.8634,2.8635,2.8635,0,0,0,0,0,0,0,2.8733,2.8732,2.8725,2.8712,2.8709,2.8697,2.8694,2.87,2.8673,2.8677,2.8674,2.8671,2.8651,2.8649,2.8648,2.8659,2.8634,2.8634,2.8635,2.8635,2.8691,2.8692,0,0,0,0,0,0,2.8738,2.8733,2.8725,2.8724,2.8716,2.8698,2.8695,2.8695,2.8673,2.8669,2.8673,2.8669,2.8649,2.8648,2.8647,2.8677,2.8635,2.8635,2.8635,2.8689,2.8691,2.8692,0,0,0,0,0,0,2.8738,2.8738,2.8726,2.8727,2.8725,2.87,2.87,2.8695,2.8693,2.867,2.8665,2.8676,2.8648,2.8647,2.8658,2.8676,2.8635,2.8635,2.8688,2.869,2.8692,2.8738,0,0,0,0,0,0,2.8739,2.8738,2.8748,2.8728,2.8725,2.8738,2.8701,2.8696,2.8694,2.8689,2.8671,2.8667,2.8647,2.8658,2.8658,2.8675,2.8635,2.8686,2.8689,2.8691,2.8735,2.8742,2.8747,0,0,0,0,0,2.8739,2.8763,2.8749,2.8748,2.8738,2.8739,2.8738,2.8714,2.8695,2.8705,2.869,2.8668,2.8674,2.866,2.8659,2.8677,2.8685,2.8688,2.8691,2.8732,2.874,2.8747,0,0,0,0,0,0,2.8786,2.876,2.8744,2.8762,2.8753,2.8731,2.8743,2.8724,2.872,2.8716,2.8687,2.8683,2.8698,2.8689,2.8673,2.8702,2.8676,2.8679,2.8707,2.8715,2.8721,2.8722,2.8635,0,0,0,0,0,2.8798,2.8802,2.8779,2.8797,2.8793,2.8769,2.8769,2.8751,2.8741,2.8737,2.8723,2.8714,2.8713,2.8714,2.8712,2.8734,2.8729,2.8746,2.8752,2.8757,2.876,2.8769,2.8776,2.8703,2.8703,2.8702,0,0,2.8824,2.881,2.8814,2.8806,2.8797,2.88,2.8766,2.8772,2.8774,2.8738,2.8747,2.8737,2.8725,2.8741,2.8747,2.8733,2.8779,2.8761,2.8765,2.8765,2.8773,2.878,2.8786,2.8705,2.8704,2.8704,0,0,2.8872,2.8862,2.8876,2.8867,2.8854,2.8838,2.8842,2.8823,2.8814,2.8823,2.8796,2.8798,2.8799,2.8791,2.8787,2.8832,2.8811,2.8833,2.8864,2.8874,2.888,2.8885,2.8899,2.8905,2.8836,2.8836,2.8836,0,2.8905,2.891,2.8885,2.8892,2.8889,2.8856,2.8869,2.8863,2.885,2.8848,2.8833,2.8833,2.8823,2.8836,2.8847,2.8845,2.8847,2.8834,2.8881,2.8886,2.889,2.8903,2.8909,2.8839,2.8839,2.8838,2.8838,0,2.8951,2.8955,2.8967,2.8955,2.8953,2.8964,2.894,2.8941,2.8924,2.891,2.8919,2.8906,2.89,2.8903,2.8887,2.8914,2.8905,2.8886,2.8859,2.89,2.8912,2.8917,2.8843,2.8842,2.8841,2.884,0,0,2.9026,2.9001,2.9005,2.8999,2.8983,2.8985,2.8994,2.8988,2.8989,2.8982,2.8988,2.8989,2.8971,2.8967,2.895,2.8958,2.8993,2.8938,2.8937,2.8947,2.902,2.9034,2.904,2.898,2.8981,2.8981,2.9021,0,2.907,2.9082,2.906,2.9078,2.9081,2.905,2.9058,2.9048,2.9035,2.9035,2.9021,2.9021,2.8998,2.8995,2.9003,2.8987,2.9007,2.8984,2.8984,2.8984,2.8986,2.9047,2.9061,2.9099,2.9026,2.9026,2.9027,0,2.9121,2.9116,2.9134,2.9116,2.9116,2.9123,2.9116,2.9117,2.9105,2.9095,2.909,2.907,2.9077,2.9052,2.906,2.9045,2.9044,2.9036,2.9037,2.9035,2.9007,2.9044,2.9111,2.9116,2.9035,2.9034,2.9033,0,2.9173,2.917,2.918,2.9176,2.9156,2.9161,2.9153,2.914,2.9138,2.9132,2.913,2.9126,2.9123,2.9119,2.9098,2.9082,2.9108,2.9082,2.9099,2.91,2.9105,2.9104,2.917,2.9107,2.9107,2.9107,2.9107,0,2.9222,2.9234,2.9203,2.9209,2.9221,2.9196,2.9209,2.9198,2.9187,2.919,2.9164,2.9167,2.9139,2.914,2.9123,2.9132,2.9131,2.9122,2.9117,2.9124,2.9124,2.9121,2.9117,2.9108,2.9108,2.9108,2.9107,0,2.9281,2.9261,2.927,2.9249,2.9245,2.9254,2.9237,2.9241,2.9227,2.9231,2.9231,2.9208,2.9207,2.9185,2.918,2.9169,2.9183,2.9174,2.9187,2.9183,2.9201,2.9199,2.9265,2.9272,2.9207,2.9207,2.9208,0,2.9313,2.9321,2.9302,2.9302,2.9295,2.9296,2.9293,2.9269,2.9268,2.9255,2.9261,2.9258,2.9254,2.9254,2.9236,2.9232,2.9221,2.9245,2.922,2.9226,2.922,2.9219,2.9219,2.925,2.925,2.9251,2.9252,0,2.9372,2.9361,2.9359,2.9353,2.9351,2.9346,2.9338,2.934,2.9313,2.9313,2.9312,2.9309,2.9303,2.93,2.9292,2.9283,2.9262,2.926,2.9263,2.9269,2.9275,2.927,2.9199,2.9258,2.9257,2.9257,2.9257,2.9256,2.9417,2.9422,2.9409,2.9407,2.94,2.9393,2.9396,2.9382,2.938,2.9374,2.936,2.936,2.9348,2.9335,2.9328,2.9328,2.9316,2.9321,2.9322,2.9323,2.9326,2.9277,2.9326,2.9326,2.9326,2.9326,2.9326,0,2.9472,2.9463,2.9461,2.9452,2.945,2.9432,2.9423,2.9423,2.9423,2.9414,2.941,2.9408,2.9405,2.9388,2.9382,2.9385,2.9376,2.9384,2.9383,2.9381,2.9338,2.9335,2.9392,2.9392,2.9392,2.9392,2.9392,2.9392,2.9501,2.9509,2.9497,2.9501,2.9491,2.9491,2.9487,2.9481,2.9473,2.9472,2.9469,2.9458,2.9445,2.9438,2.9434,2.9429,2.9427,2.9439,2.9431,2.9391,2.9384,2.9378,2.9375,2.9439,2.9439,2.9473,2.9474,2.9474]}]]